Back to catalog

USA 74-77 DEB

AliveVLEO
NORAD 25591·DEBRIS·🇺🇸 United States

Launched Nov 8, 1991 from Vandenberg Space Force Base

Loading…

Next Passes (next 24 hours)

TLE

StaleSource: Space-Track

Epoch: Dec 31, 1998, 12:32 UTC

1 25591U 91076L   98365.52288517  .10587174  76253-5  12451-2 0  9990
2 25591 064.8500 050.5323 0187071 047.9989 313.7957 16.00963826    12

Track USA 74-77 DEB in real time with AllMySat

Download on the App Store